Skip Page Navigation
NASA JPL Caltech
NASA Logo - Jet Propulsion Laboratory + View the NASA Portal
+ Center for Near-Earth Object Studies
JPL Home Earth Solar System Stars & Galaxies Technology
JPL Solar System Dynamics
BODIES ORBITS EPHEMERIDES TOOLS PHYSICAL DATA DISCOVERY FAQ SITE MAP
JPL Small-Body Database Browser
Search: [ help ]  
(2016 CY135)
Classification: Apollo [NEO]          SPK-ID: 3742333
Ephemeris | Orbit Diagram | Orbital Elements | Mission Design | Physical Parameters | Close-Approach Data ]

[ hide orbit diagram ]

For accurate long-term ephemerides, please instead use our Horizons system.This orbit viewer was implemented using two-body methods, and hence should not be used for determining accurate long-term trajectories (over several years or decades) or planetary encounter circumstances.


[ revert to old Java-based viewer ]

Orbital Elements at Epoch 2459000.5 (2020-May-31.0) TDB
Reference: JPL 33 (heliocentric ecliptic J2000)
 Element Value Uncertainty (1-sigma)   Units 
e .3534619958837394 8.0174e-06  
a 1.475081133061978 1.6806e-05 au
q .9536960116794433 9.6048e-07 au
i 1.10374712867583 2.1032e-05 deg
node 173.4902546844873 6.1526e-05 deg
peri 26.54235538971641 0.00015012 deg
M 113.2784770475396 0.01425 deg
tp 2458794.594859047999
(2019-Nov-07.09485905)
0.022383 TDB
period 654.368355531581
1.79
0.011183
3.062e-05
d
yr
n .5501488526405763 9.4023e-06 deg/d
Q 1.996466254444513 2.2747e-05 au
  Orbit Determination Parameters
   # obs. used (total)      87  
   data-arc span      164 days  
   first obs. used      2016-01-31  
   last obs. used      2016-07-13  
   planetary ephem.      DE431  
   SB-pert. ephem.      SB431-N16  
   condition code      4  
   norm. resid. RMS      .37376  
   source      ORB  
   producer      Otto Matic  
   solution date      2017-Apr-06 08:28:31  

Additional Information
 Earth MOID = .00178157 au 
 Jupiter MOID = 2.96002 au 
 T_jup = 4.523 
[ show covariance matrix ]

Ephemeris | Orbit Diagram | Orbital Elements | Mission Design | Physical Parameters | Close-Approach Data ]

Physical Parameter Table
Parameter Symbol Value Units Sigma Reference Notes
absolute magnitude H 24.5   n/a MPO373615  

[ hide close-approach data ]
Close-Approach Data   ...sorted by Date/Time (TDB)
Date/Time (TDB) Time Uncertainty
(days_HH:MM)
Body Nominal Distance (au) Minimum Distance (au) Maximum Distance (au) V-relative (km/s) V-infinity (km/s) JD (TDB) Time Uncertainty (minutes) Semi-major axis (km) Semi-minor axis (km) range-LOV angle (deg) N-sigma BP Orbit Ref. Reference Modified
1913-Nov-14 13:02 1_20:59 Mars 0.0813097046701257 0.0721491858999676 0.100930993278472 11.2892454389296 11.2889335464614 2420086.043001084 2698.9770198824 1642582.28939488 9.13369603462244 62.2907869119663 1167622.91084051 T 33 CATAB v2.0e-lin.ifort 2017-Nov-30 10:48:51 2018-Dec-11 16:53
1914-Mar-09 07:39 4_04:57 Moon 0.00603156486277879 0.00243544532189332 0.0264013723582827 6.68468146907022 6.68386857405903 2420200.818648933 6057.44721324963 1035766.80894762 1.65953467594199 -23.8192837231594 219314.879960614 T 33 CATAB v2.0e-lin.ifort 2017-Nov-30 10:48:51 2018-Dec-11 16:53
1914-Mar-10 04:33 5_04:15 Earth 0.00586989754016782 0.00205276390572944 0.0232455724096838 6.65462058020168 6.58605570911661 2420201.689637304 7455.49154044717 881168.072032695 1.69318382728338 -20.843292895738 182432.44670459 T 33 CATAB v2.0e-lin.ifort 2017-Nov-30 10:48:51 2018-Dec-11 16:53
1923-Feb-10 18:52 14:33 Earth 0.274593162103104 0.259499959431799 0.289686357799985 15.2246685301163 15.2240311714679 2423461.286198165 872.969431880096 752633.655525451 1.83413972176627 -0.490893350267644 159690.098434201 T 33 CATAB v2.0e-lin.ifort 2017-Nov-30 10:48:51 2018-Dec-11 16:53
1930-Jun-27 23:02 05:07 Earth 0.494935879454477 0.487797422274473 0.502074478073235 21.4834299929369 21.4831794037481 2426155.459916877 306.908949251662 356213.945731966 5.62500895447918 2.14457211297919 434128.852736801 T 33 CATAB v2.0e-lin.ifort 2017-Nov-30 10:48:51 2018-Dec-11 16:53
1939-Jan-15 00:04 1_04:45 Earth 0.456758010469148 0.455226951415678 0.458289093457295 5.30637551595945 5.30527607174702 2429278.502726331 1724.82734927933 76526.1898854158 6.65694726493816 -3.62896456470331 1667040.72645178 T 33 CATAB v2.0e-lin.ifort 2017-Nov-30 10:48:51 2018-Dec-11 16:53
1939-Jun-11 07:26 02:58 Earth 0.196611381303982 0.194412173443924 0.198810649841635 12.7516442627409 12.7505814527881 2429425.810020854 177.954391027737 109802.295347326 5.55930709952248 -2.92188491609027 227291.21046013 T 33 CATAB v2.0e-lin.ifort 2017-Nov-30 10:48:51 2018-Dec-11 16:53
1948-Apr-28 22:01 4_11:56 Earth 0.0431704727752186 0.0396044736762958 0.0467825355952218 5.85504025940662 5.84448941680464 2432670.417675648 6475.77020399735 192316.850111044 4.30617852998458 21.2394854390547 657658.929270448 T 33 CATAB v2.0e-lin.ifort 2017-Nov-30 10:48:51 2018-Dec-11 16:53
1957-Feb-17 15:12 12:13 Earth 0.157356257219016 0.148859314136767 0.165853122600333 11.6721354759366 11.6706846844076 2435887.133438030 732.780081221769 423670.37356475 1.81009590653922 0.208740359153188 35425.6182043297 T 33 CATAB v2.0e-lin.ifort 2017-Nov-30 10:48:51 2018-Dec-11 16:53
1957-Jul-03 05:49 7_20:55 Earth 0.425218262946805 0.419002578672173 0.431506360477709 3.77848983564996 3.77683109867209 2436022.742164399 11335.0562731949 416888.166425176 4.15659787203349 41.5107944401378 3417470.90722564 T 33 CATAB v2.0e-lin.ifort 2017-Nov-30 10:48:51 2018-Dec-11 16:53
1973-Jan-11 09:00 19:21 Earth 0.476672708350127 0.475590907001928 0.477754536287207 5.77992598722232 5.77895880984472 2441693.875148329 1160.90715509025 54237.0948708934 6.92274681478075 -5.8039243571543 2256304.47292579 T 33 CATAB v2.0e-lin.ifort 2017-Nov-30 10:48:51 2018-Dec-11 16:53
1973-Jun-13 01:43 01:58 Earth 0.227453997668309 0.225762826164656 0.229145183956924 13.6746554644265 13.6737987896237 2441846.571456698 118.202415003705 84381.8214135908 5.5497185885763 -2.05428540074093 185463.995024768 T 33 CATAB v2.0e-lin.ifort 2017-Nov-30 10:48:51 2018-Dec-11 16:53
1982-Apr-20 23:20 3_01:30 Earth 0.0487644127978917 0.0477879082267037 0.0497438022702929 5.79844539217103 5.78901453629051 2445080.472033556 4410.04041986573 52235.573738268 3.85601667791348 20.8151690500039 859176.808468856 T 33 CATAB v2.0e-lin.ifort 2017-Nov-30 10:48:51 2018-Dec-11 16:53
1991-Feb-15 02:16 07:44 Earth 0.208020808892082 0.201552426058646 0.214489166809649 13.1926351257236 13.1916641910596 2448302.594109541 463.817464610795 322531.496950772 1.81342632894635 -0.0814036907882036 16066.2451012454 T 33 CATAB v2.0e-lin.ifort 2017-Nov-30 10:48:51 2018-Dec-11 16:53
1991-Jul-11 00:53 4_04:41 Earth 0.460132520195987 0.455807064969525 0.464486805990467 4.82094457711557 4.81974327732196 2448448.536992219 6041.19788100976 282541.957791877 4.04544191696156 39.9695211971789 4642455.7557993 T 33 CATAB v2.0e-lin.ifort 2017-Nov-30 10:48:51 2018-Dec-11 16:53
2007-Jan-20 13:54 2_03:10 Earth 0.426627698782612 0.424567163873259 0.428688258417096 4.53184926402223 4.5304709318258 2454121.079264344 3069.68252572648 102878.809222714 6.08429516401913 -1.82960126167028 3898147.43860691 T 33 CATAB v2.0e-lin.ifort 2017-Nov-30 10:48:51 2018-Dec-11 16:53
2007-Jun-08 19:00 04:29 Earth 0.15507887326753 0.152283254213761 0.157874810006567 11.4934935446652 11.4919985628525 2454260.291804161 268.619073747898 139852.866727667 5.48445271843283 -4.60616294328991 287922.689892222 T 33 CATAB v2.0e-lin.ifort 2017-Nov-30 10:48:51 2018-Dec-11 16:53
2016-Mar-23 20:51 < 00:01 Earth 0.0358356004708306 0.0358333058498867 0.0358378950905239 5.92761275441097 5.91505598019905 2457471.368505727 0.0540878352867311 113.934233006381 2.17560212089868 -0.0385839237838811 26244.7548830155 T 33 CATAB v2.0e-lin.ifort 2017-Nov-30 10:48:51 2018-Dec-11 16:53
2024-Nov-03 15:04 02:00 Mars 0.0847940889580918 0.0831789781551641 0.0864351868542458 11.5214567026917 11.5211636547068 2460618.127926898 120.108672461219 109869.319587476 8.03823981336907 42.3495615498626 1048066.29235541 T 33 CATAB v2.0e-lin.ifort 2017-Nov-30 10:48:51 2018-Dec-11 16:53
2025-Feb-15 08:39 03:35 Earth 0.1988476872178 0.195942279239614 0.201753089640789 12.9307339152877 12.9296976139932 2460721.860478386 215.053078469728 144871.329444763 1.81729979677284 -0.0767241154756284 13972.7885000543 T 33 CATAB v2.0e-lin.ifort 2017-Nov-30 10:48:51 2018-Dec-11 16:53
2025-Jul-09 07:40 2_00:43 Earth 0.454172756229829 0.452219254424244 0.45613262009257 4.60478885604188 4.60351464416689 2460865.819570182 2922.98370736156 129256.69550831 3.97279161370192 40.9420577857324 4359319.08468885 T 33 CATAB v2.0e-lin.ifort 2017-Nov-30 10:48:51 2018-Dec-11 16:53
2034-Jan-30 22:46 03:21 Earth 0.491801968969071 0.486654277885152 0.496949705128181 21.703252769497 21.7030031377806 2463993.448855286 200.667831822966 256803.015520877 1.81240149548805 -1.68457753276404 1054828.11164326 T 33 CATAB v2.0e-lin.ifort 2017-Nov-30 10:48:51 2018-Dec-11 16:53
2041-Jun-17 13:00 06:52 Earth 0.293759551225667 0.287061490580033 0.300457626202064 15.6314196612627 15.630839391422 2466688.041326703 412.332267690403 334021.231374215 5.52444227886279 -0.742749449497218 86834.3823635585 T 33 CATAB v2.0e-lin.ifort 2017-Nov-30 10:48:51 2018-Dec-11 16:53
2050-May-25 18:27 1_06:57 Earth 0.0316457814491277 0.0259157290023599 0.0378771694665657 7.57345822575578 7.56233267783974 2469952.268915383 1856.71728171403 358618.496171103 5.25406948008312 -33.0867482692855 458055.542393118 T 33 CATAB v2.0e-lin.ifort 2017-Nov-30 10:48:51 2018-Dec-11 16:53
2059-Apr-28 22:43 4_12:04 Earth 0.0446104733564952 0.041422659670494 0.0478329259198318 5.86701583785872 5.85682674447904 2473212.446776067 6483.75597177749 171448.928678713 4.39100784620756 21.0046709724724 666339.780099562 T 33 CATAB v2.0e-lin.ifort 2017-Nov-30 10:48:51 2018-Dec-11 16:53
2068-Mar-11 10:17 3_20:49 Moon 0.00830124019742033 0.00106321500241499 0.0247518172133976 7.21850293828235 7.21795599145583 2476451.928497054 5569.30888256392 822597.822561526 1.84845652483697 -7.36231376523704 85421.4568805758 T 33 CATAB v2.0e-lin.ifort 2017-Nov-30 10:48:51 2018-Dec-11 16:53
2068-Mar-12 04:25 4_20:11 Earth 0.00995998246357902 0.00110473253807167 0.0246101965817549 6.49924326558943 6.45795060926472 2476452.683733454 6970.84931928548 732731.336288444 1.87978951204238 -6.65303073681301 88912.6466534345 T 33 CATAB v2.0e-lin.ifort 2017-Nov-30 10:48:51 2018-Dec-11 16:53
Ephemeris | Orbit Diagram | Orbital Elements | Mission Design | Physical Parameters | Close-Approach Data ]
ABOUT SSD CREDITS/AWARDS PRIVACY/COPYRIGHT GLOSSARY LINKS
FirstGov 2020-Nov-24 21:36 UT
(server date/time)  
NASA Home Page
Site Manager:   Ryan S. Park
Webmaster  Alan B. Chamberlin